Location: Poughquag
(41.6090°N, 73.6820°W)
Time: 08:14:31
(UTC-05:00)

Vanguard 1 - Pass Details

Date: 01 December 2023
Orbit: 653 x 3826 km, 34.3° (Epoch: 25 February)

Event Time Altitude Azimuth Distance (km) Brightness Sun altitude
Rises 21:51:57 0° 270° (W) 7,165 14.8 -59.3°
Reaches altitude 10° 21:56:20 10° 268° (W) 6,417 14.4 -60.0°
Enters shadow 22:10:32 50° 250° (WSW) 4,450 13.1 -62.2°
Maximum altitude 22:18:38 68° 192° (SSW) 3,991 - -63.4°
Drops below altitude 10° 22:39:03 10° 116° (ESE) 5,951 - -66.0°
Sets 22:42:56 0° 113° (ESE) 6,647 - -66.5°
